This is the latest recevied weather packets stored in our database for station/object WA6GRA. If no packets are shown the sender has not sent any weather packets the latest 10 day(s).
| Time | Temp. | Humidity | Pressure | Rain* | Wind** | Luminosity | Snow |
|---|---|---|---|---|---|---|---|
| 1777428010 | 21.67° C | 43% | 1015.9 hPa | 0 mm | - | 44 W/m² | - |
| 1777427410 | 22.22° C | 43% | 1015.8 hPa | 0 mm | - | 59 W/m² | - |
| 1777426810 | 22.22° C | 42% | 1015.7 hPa | 0 mm | - | 76 W/m² | - |
| 1777426208 | 22.78° C | 43% | 1015.8 hPa | 0 mm | - | 95 W/m² | - |
| 1777425605 | 22.78° C | 43% | 1015.7 hPa | 0 mm | - | 115 W/m² | - |
| 1777425004 | 23.33° C | 44% | 1015.5 hPa | 0 mm | - | 138 W/m² | - |
| 1777424400 | 23.33° C | 42% | 1015.6 hPa | 0 mm | - | 162 W/m² | - |
| 1777423800 | 23.33° C | 42% | 1015.7 hPa | 0 mm | - | 187 W/m² | - |
| 1777423196 | 23.33° C | 43% | 1015.6 hPa | 0 mm | - | 213 W/m² | - |
| 1777422592 | 23.33° C | 42% | 1015.6 hPa | 0 mm | - | 245 W/m² | - |
| 1777421988 | 23.89° C | 41% | 1015.6 hPa | 0 mm | - | 281 W/m² | - |
| 1777421384 | 23.33° C | 42% | 1015.4 hPa | 0 mm | - | 311 W/m² | - |
| 1777420783 | 23.33° C | 43% | 1015.8 hPa | 0 mm | - | 342 W/m² | - |
| 1777420183 | 23.33° C | 42% | 1015.7 hPa | 0 mm | - | 377 W/m² | - |
| 1777419581 | 23.89° C | 42% | 1015.7 hPa | 0 mm | - | 412 W/m² | - |
| 1777418978 | 23.33° C | 42% | 1015.9 hPa | 0 mm | - | 444 W/m² | - |
| 1777418375 | 23.33° C | 44% | 1015.9 hPa | 0 mm | - | 479 W/m² | - |
| 1777417773 | 23.89° C | 41% | 1016.1 hPa | 0 mm | - | 510 W/m² | - |
| 1777417171 | 23.33° C | 43% | 1016 hPa | 0 mm | - | 542 W/m² | - |
| 1777416568 | 23.33° C | 43% | 1016 hPa | 0 mm | - | 576 W/m² | - |
| 1777415964 | 23.33° C | 45% | 1016.1 hPa | 0 mm | - | 604 W/m² | - |
| 1777415361 | 22.78° C | 45% | 1016.2 hPa | 0 mm | - | 630 W/m² | - |
| 1777414761 | 22.22° C | 45% | 1016.5 hPa | 0 mm | - | 662 W/m² | - |
| 1777414162 | 22.78° C | 45% | 1016.6 hPa | 0 mm | - | 685 W/m² | - |
| 1777413559 | 22.22° C | 44% | 1016.9 hPa | 0 mm | - | 709 W/m² | - |
* Rain latest hour (hover to see other rain measurements)
** Current wind speed in m/s (hover to see current wind gust speed)